CAPE
2004 2011 2114 1826 1760 1649 1613 1515 1690 1730 2423 2596 2161 2311 1777 1414 1735 1476 1708 677 453 496 679 376 464 420 455 670 502 815 667 714 676 673 856 1354 3031 2435 2858 2604 2655 2694 2660 2442 2294 2472 2252 2309 2310 2184 2334 2379 2096 2391 2459 2486 2491 2550 2626 2734 2830 2936 3054 3138 3152 3151 3179 3211 3268 3291 3243 3190 3163 3147 3139 2945 2674 2619 2544 2254 2323 2511 2723 2751 2738
1806 1776 1712 1610 1708 1676 1518 1468 1498 1305 1384 1316 1570 1364 1153 1041 1571 1942 2014 1408 1078 1085 1063 746 822 967 1045 1154 945 632 889 967 1030 814 599 937 2071 1620 2938 2758 2940 2524 2612 2593 2668 2734 2453 2557 2402 2302 2440 2583 2570 2636 2637 2747 2800 2861 2937 3040 3181 3299 3436 3518 3544 3542 3621 3789 3752 3714 3680 3650 3606 3474 3313 2967 3182 2863 2681 2714 2831 3008 3035 2846 2741
1359 1378 1591 1510 1383 1360 1462 1698 1766 1494 1558 1607 1509 1400 1694 2224 2223 2269 2229 2016 1195 1113 1293 923 980 747 907 582 612 1191 728 885 967 1020 613 1096 1486 2406 1918 3047 2598 2959 2932 2871 2751 2642 2627 2716 2620 2540 2666 2830 2862 2921 3005 3057 3130 3174 3268 3377 3494 3624 3732 3768 3856 3923 4057 3963 4052 4073 4042 3867 3736 3658 3521 3533 3612 3384 3418 3502 3341 3538 3506 3369 3243
1136 1173 1210 1220 1193 1220 1419 1804 1529 1399 1494 1570 2021 2153 2372 2446 3106 2990 2796 2142 1423 977 1239 930 956 538 898 606 743 721 921 1206 750 579 347 508 825 1891 2423 1945 2607 2774 2976 3165 2916 2770 2928 2911 2886 2795 2863 2968 3172 3058 3158 3201 3270 3354 3399 3583 3707 3821 3990 4140 4206 4357 4176 4271 4292 4338 4202 4037 4004 4034 4054 3946 3849 3962 3930 4051 3856 3844 3804 3771 3625
1342 1160 1269 1358 1484 1550 1680 1457 1556 1734 1870 2513 2355 2334 1593 2045 2451 3238 2476 1714 1319 726 1065 750 814 922 767 670 717 321 556 430 662 975 604 616 1312 1185 2532 3035 2434 2939 3085 2828 2868 3234 3061 3036 2924 3123 3161 3270 3224 3256 3201 3231 3316 3424 3532 3621 3924 4073 4238 4386 4353 4445 4420 4504 4405 4350 4368 4305 4248 4365 4202 4346 4426 4360 4218 4143 4039 3721 3485 3548 3554
1488 1464 1450 1543 1614 1548 1313 1426 1716 2265 1880 2235 2431 2027 2014 2237 2073 1835 1496 1537 1174 1132 838 771 428 818 1000 610 749 969 973 1102 724 404 1258 871 615 860 647 1394 3166 3120 2624 2985 3129 2810 3073 3127 3190 3216 3203 3282 3406 3477 3471 3433 3679 3712 3864 4060 4162 4279 4368 4471 4484 4502 4515 4555 4578 4469 4494 4529 4519 4607 4474 4469 4326 4172 4013 3790 3296 3156 3401 3392 3349
1722 1596 1470 1489 1516 1421 1387 1667 1738 1935 2372 2801 2008 1881 1847 1992 1683 1943 2022 1600 1173 1165 929 755 394 781 838 1237 732 1052 1344 638 946 413 967 855 1485 1362 1437 1331 1181 2407 3185 2662 2888 3513 3166 3019 2914 2999 3265 3164 3128 3333 3613 3854 3852 4020 4125 4252 4350 4604 4674 4643 4652 4686 4685 4688 4651 4620 4537 4651 4627 4495 4392 4318 4132 3995 3476 3527 3330 3362 3114 3335 3057
2201 1783 1511 1441 1332 1705 1847 2289 2179 2264 2359 2707 2956 2376 2525 2638 1913 2396 1856 1364 1032 660 547 755 1269 692 558 617 500 828 969 795 1164 1120 707 1098 1034 862 1496 1782 1907 1771 1775 3266 3931 2978 2942 3248 3148 3148 3355 3579 3724 3721 3859 4113 4130 4402 4532 4746 4706 4706 4718 4736 4772 4726 4884 4885 4887 4774 4675 4644 4374 4266 4384 4243 3819 3694 3384 3204 3136 3001 2754 1688 1410
2391 2513 2182 1722 1691 1670 1755 2189 2827 2427 2572 3070 2671 1972 2564 1758 2672 2541 2529 3111 1614 950 936 788 712 508 734 1058 555 1225 934 1318 1525 706 949 1017 702 867 1194 1882 2287 1096 1711 1816 2684 3514 2946 2931 3230 3480 3312 3636 3901 4144 4328 4298 4562 4629 4772 4813 4659 4459 4497 4704 4947 5128 5002 5023 5026 4726 4554 4309 4194 4207 3870 3832 3641 3162 2845 2713 2484 1883 1299 1364 1558
2524 2705 2659 1920 1780 1781 2318 2832 2839 2759 3130 2342 2530 2417 2798 2358 3106 3634 2793 2848 2010 1336 1275 1012 621 564 1072 623 949 796 564 1228 829 918 726 847 1456 1018 1193 1015 1375 1492 2035 1780 1656 2849 3521 3208 3377 3617 4097 4358 4309 4344 4321 4161 4406 4493 4741 4710 4491 4485 4653 4898 5148 5381 4979 4937 4676 4402 4333 4250 4273 3948 3762 3703 3542 3127 2630 2224 1889 1502 1419 1391 1302
2633 2947 2810 2309 2360 2446 2544 3235 2860 3421 3097 2781 2824 2537 2643 2636 3047 2858 3525 3240 2401 1560 1081 668 938 741 528 537 313 990 1162 656 981 928 931 972 901 840 693 908 887 676 1830 826 1606 1593 2883 4055 3659 3659 3842 3867 4888 4587 4525 4732 4604 4736 4554 4300 4280 4598 4851 4940 5374 5241 5096 4824 4402 4408 4258 4098 4125 3893 3519 3631 3572 2961 2390 1967 1742 1499 1316 1201 1058
2658 2641 2969 2354 2283 2663 2861 3011 2767 3201 3039 2760 2517 3164 4172 4215 3524 3674 3464 2552 1872 1274 592 674 546 638 500 496 925 1002 1539 1248 1062 775 600 245 631 1025 773 381 646 882 1090 1174 1327 1617 1808 1874 3094 3227 4325 4024 3755 5114 4788 4971 5085 5104 4700 4172 4252 4800 4776 4829 5274 5171 5167 4630 4438 4288 4134 4012 3976 3731 3448 3560 3446 2881 2523 2023 1791 1483 1248 1012 800
2773 2763 2741 2775 2715 2941 3103 3252 2912 3292 3590 3282 2940 3028 3240 3629 2742 3523 3036 2236 1696 685 270 981 707 843 1088 712 575 868 387 911 929 694 514 656 345 632 843 620 635 710 901 1265 1135 950 1056 2636 2584 2052 2980 4739 4471 4405 4475 4591 4468 4279 4323 4222 4538 4547 4833 4904 5028 5102 4671 4670 4422 4172 3900 3996 3769 3548 3483 3310 3340 2882 2512 2100 1931 1673 1430 1151 724
2705 2900 2764 2569 2981 2950 3219 4030 3515 3219 3744 3857 3670 3160 3348 4455 3095 3665 2771 2161 1572 866 507 997 801 436 819 850 844 1101 662 441 496 760 428 510 386 818 585 862 725 789 937 1121 1006 1090 1148 912 2228 2030 2715 3145 3408 4764 5577 5497 5113 4140 4596 4509 4434 4498 4648 4653 4943 4763 4759 4486 4429 4165 4004 3892 3658 3514 3277 3268 2991 2658 2247 2142 2111 1820 1541 1583 1490
2716 2847 2753 2570 2782 3008 3176 3839 3591 2997 3398 4328 4379 3230 4360 3340 3071 3206 3425 1905 1259 1130 1208 1423 569 877 1208 878 411 438 878 1133 803 316 374 284 389 366 572 596 401 520 864 1087 903 984 888 871 1578 2642 2846 3217 2851 2990 2765 2837 3493 3699 3502 3854 4065 4303 4422 4982 5003 4921 4288 4546 4279 4102 3867 3855 3591 3217 3040 2984 2950 2696 1913 1887 2073 1796 1768 1761 1645
2461 2185 2324 2942 2937 2884 2542 3225 4439 4294 4375 4316 3998 4225 3068 3200 2594 2948 3651 3295 1204 483 717 964 1445 672 1138 1376 1043 584 767 875 777 337 156 337 404 59 147 375 560 689 1085 1375 809 835 763 1005 1654 2849 3310 3001 3309 2904 2194 2692 4562 4570 4600 4358 3257 3309 4139 4785 5119 4937 4540 4417 4190 3994 4088 3647 3460 3462 2992 2920 3099 2851 2318 2193 2071 2029 1981 1922 1824
2220 2219 2305 2787 3234 3320 3441 3124 3603 3424 3424 3588 3362 3056 2848 2842 2423 3154 3659 2724 1470 997 1039 924 1204 2444 1693 1504 1490 1000 1030 786 450 897 614 68 351 228 254 440 323 686 1132 801 350 1019 1038 930 1883 2469 2405 3679 3532 2418 2123 2470 3656 3894 7585 5567 4431 3103 3743 4672 4961 4807 4718 4504 4589 4498 3938 3892 3601 3307 3292 2959 3006 2902 2504 2356 2284 2173 2078 2027 1978
2246 2177 2444 2456 3048 3944 4108 3616 3443 3539 3691 3045 2737 2722 2157 3474 2561 2578 3185 3336 2569 1365 462 956 1496 2043 1880 1798 2529 1968 2041 1016 1212 554 932 318 69 277 55 370 450 814 1014 605 857 813 308 642 1621 2103 2094 2140 1733 1997 1541 2398 3103 2936 4465 6731 3740 3446 3495 3689 4550 4946 4393 4453 4693 4802 4438 4251 3843 3486 3473 3202 2883 2913 2667 2411 2387 2311 2223 2100 2006
2190 2206 2781 2510 3030 3566 3812 3542 2675 3571 3023 3336 2754 2468 2535 2630 2590 3095 3175 2546 3684 2227 1303 763 1182 1395 1223 1797 1719 1860 1601 1591 1292 312 488 842 745 234 300 461 341 422 671 520 472 647 515 787 802 1061 1610 1624 1431 1641 1333 1289 1356 2383 2410 2801 1982 3482 3784 3710 4158 4672 4467 4195 4532 4816 4572 4516 4272 3887 3702 3536 3382 2977 2860 2415 2380 2347 2290 2176 2073
2331 2648 2632 2620 2987 3506 4247 3714 3675 2500 2850 3439 2890 2381 2236 3014 2188 3241 3840 3287 3546 3608 2602 2100 1052 1367 1890 1799 1138 884 1155 1749 1471 1901 1628 541 491 407 327 250 412 446 464 525 544 614 686 542 1300 842 1436 1364 1486 1359 1462 1740 2677 2942 1227 2602 2989 3088 3580 3761 3962 4308 4522 4236 4152 4744 4801 4611 4556 4269 3980 3786 3398 3267 2819 2613 2399 2321 2287 2206 2164
2736 2529 2525 2493 3106 3605 3714 4381 3584 3239 2670 2613 2374 2512 2429 3496 2810 3467 2953 2890 3697 2856 3347 2604 2086 1534 1390 2463 2418 1646 1071 814 346 637 1548 1617 627 1010 1113 352 849 297 554 529 708 818 722 801 507 474 741 1198 1720 2166 1307 1400 2362 3152 3430 2782 2852 3426 3816 4072 3992 4217 4504 4440 3929 4125 4640 4551 4558 4467 4360 4145 3874 3258 3060 2770 2549 2333 2300 2224 2213
3391 2611 2823 3250 3288 4251 3886 3472 3659 3113 2536 2357 2838 3355 2893 3013 3664 3474 4231 4425 3600 3030 3705 2783 2763 2891 2023 2004 2740 2647 1986 1469 1400 1070 797 1107 1280 535 638 799 1154 1127 689 709 871 912 522 664 698 829 927 762 923 1315 1381 1305 3178 1086 2239 1726 2682 2991 3344 3510 3597 4024 4493 4108 4010 3984 3978 4189 4291 4348 4289 4129 3883 3443 2990 2672 2643 2461 2296 2240 2216
2682 3257 3090 3317 3404 3742 3257 3355 3284 3173 2982 3488 3376 2842 2191 2741 2916 3803 2800 3686 3107 4092 2515 2484 2287 2313 2227 2294 2320 1734 1132 1677 1792 1638 1941 1253 760 907 538 852 1018 1354 780 776 573 757 794 841 646 868 965 833 1173 1364 1507 2119 1876 1990 2210 2328 2607 2820 3451 3571 3476 3731 3780 3289 3422 3608 3633 3887 4012 4091 4098 4170 4116 3618 2989 2543 2546 2491 2334 2212 2155
2561 2671 3222 2763 3405 3461 3309 3114 3074 3036 3108 3238 2897 2157 2457 2306 3002 2986 3766 2716 3352 2984 3255 3481 3085 2872 1546 2148 1284 873 1946 872 1401 1470 739 1430 1509 1320 1004 1049 658 649 894 1440 786 576 548 614 1048 1078 1379 965 1411 2663 1399 1474 5942 2553 3622 3383 2899 3381 3475 3572 3579 3531 3159 2964 2833 2962 3198 3258 3294 3535 3659 3957 4102 3852 3285 2834 2484 2414 2349 2206 2132
2621 2683 2370 2659 3493 3840 3362 3336 3900 3441 3958 4595 4098 3603 3761 3369 3297 3035 3455 4099 2974 3133 3512 3118 2848 2767 2836 2402 2288 1903 2013 1936 1125 1234 1956 1428 1475 725 162 584 944 473 578 828 695 669 572 610 683 1490 1086 1176 1345 2260 1608 1174 3742 3466 2816 2561 2055 3196 3335 3394 3596 3085 2897 2576 2402 2512 2568 2674 2836 2939 2824 3014 3244 3266 3212 3070 2772 2441 2340 2299 2131
2429 2460 2406 2368 2772 3182 3974 3877 4099 4464 5022 4755 4710 4859 4317 3698 3187 3312 3294 3625 4268 3820 3335 2882 2833 2507 1974 1903 2249 2102 2012 1940 1940 1371 977 1259 1057 892 1810 1847 1345 709 606 851 1123 904 604 889 1549 1463 1668 2332 2009 1521 1892 1083 1626 3429 2391 2379 2121 3001 3605 3459 3326 2865 2748 2497 2425 2470 2470 2831 3119 3257 3352 3360 3234 3096 3102 2997 2644 2382 2363 2319 2218
1872 2420 2396 2517 2424 2924 3536 3581 4274 4876 4336 3757 3514 3450 5111 3485 3945 4596 3655 3334 3698 3705 3459 3018 2534 2371 2160 2168 1780 1741 2214 2468 1275 1131 1829 1592 1907 2152 2494 2739 1836 1505 923 614 1281 1481 937 1018 987 571 2305 3290 2303 2464 1758 1248 3121 2124 2433 2836 1233 4131 3683 3105 2654 2397 2371 2293 2323 2374 2367 2475 2653 2874 2906 2998 3083 3261 3294 3204 3047 2644 2379 2325 2290
2313 2601 2932 2949 2794 3114 3504 3076 4048 4370 3788 3642 4110 3180 3202 3269 4299 4153 3067 2470 3376 3617 2578 2515 2625 2713 2458 2551 3159 2411 2189 2086 1939 2176 2227 2489 2464 2293 2543 2032 2239 2148 2022 1415 1089 1151 858 1182 993 1801 2797 2787 2505 2434 1493 1386 1304 2223 2103 2109 2615 3200 3756 2424 1742 1825 2062 2089 2091 2038 1917 2020 2295 2655 2893 2976 3111 3163 3300 3278 3211 3061 2641 2318 2308
2012 2542 2890 2864 3118 3294 2905 2582 3718 4202 3784 4129 2915 3784 4630 3327 3074 2967 3030 2991 3315 3501 3522 3123 3109 2811 2691 2203 2386 2532 2574 2707 2222 1986 2484 2956 1811 2102 1988 1912 2577 2770 2677 2427 2435 1954 1696 934 1023 1540 2338 1979 2791 2443 1817 2489 2393 1713 1850 2176 1850 2355 3194 1749 1349 1692 1856 2186 1978 1798 1656 1687 1994 2263 2610 2783 2827 2986 3140 3220 3164 3123 2918 2336 2264
2004 1707 1982 2722 3310 3050 3194 2982 2868 3151 3285 2835 3240 3792 3894 2939 3410 4462 3390 3894 3374 3444 3439 3246 3269 3003 2581 2566 2654 2472 2414 2375 2201 1530 1879 3329 2190 2296 2726 2539 3456 3169 3419 3074 3143 2800 1822 1523 1354 1401 2436 1516 1269 2045 1296 1550 2820 3009 1661 1612 1797 2093 2121 1669 1822 1932 2028 2231 1849 1420 1332 1383 1493 1684 1530 1643 1791 1833 1976 2362 2847 3066 2947 2702 2199
2116 2853 1980 2452 2750 2772 3406 3236 3359 3525 3192 3358 3664 3909 3870 2784 3012 3189 2702 4102 3800 3631 3731 3510 2837 2811 3104 3153 3147 2848 2704 2786 2537 1921 2216 2776 2968 2658 2717 2644 2994 3090 3070 3651 3163 3311 2418 2323 1830 2131 1871 1640 1574 1308 1307 2009 2164 1780 1536 2119 2373 1919 1741 2496 1964 2216 2351 2315 1516 976 836 758 704 536 560 729 961 1136 1421 1724 2031 2290 2567 2658 2275
1902 2646 3003 2539 2452 2758 2600 2864 2723 2969 3210 2788 3335 3312 3872 2857 2454 2164 1918 3216 3622 3704 3025 2304 2531 2798 3403 3105 2984 2995 3122 3124 2910 2905 2948 2596 1944 1716 2288 2716 3268 3449 3791 4278 4016 2987 2950 2434 1838 1244 2090 2299 2226 2535 2344 1556 1543 1372 2280 2008 2875 1824 4167 1424 1695 2517 2651 1972 1182 703 345 459 321 233 302 464 644 913 1172 1610 1824 1869 1975 2133 2251
2094 2357 2656 2720 2822 2679 2579 2372 2383 2219 2633 2434 2554 3136 3314 3197 3471 3297 3670 4026 3551 2785 2940 2852 2754 2891 3329 2968 2983 3687 3722 3109 3016 2826 2580 2538 2953 2959 2490 1994 1923 2524 3065 4001 3498 3131 2885 3085 2007 2339 2073 1894 2225 2342 2176 1802 1529 1841 1509 1666 1617 1183 780 315 920 2673 2600 1116 602 262 299 227 194 198 174 237 428 612 1005 1362 1427 1484 1619 1711 1736
2320 1720 2479 2546 2598 2772 1950 1770 2308 2246 2958 3135 2736 2710 3245 2916 2689 1632 2992 4193 3936 2888 3330 3643 2975 2773 3206 3394 2999 2946 2947 2957 2966 2741 2474 2173 1954 1978 1436 1604 2527 2423 3405 3456 3076 3523 3034 3311 2717 1821 1500 1712 2018 2031 2053 1939 1767 1634 1155 1384 1107 597 311 324 278 4253 1832 1117 207 236 219 90 135 162 142 160 244 472 630 695 560 473 696 954 1132
2173 1909 1677 1902 2070 2190 1934 2341 2173 2372 3149 3136 2892 2720 2859 3426 3029 2830 1820 2790 2835 2694 2636 2614 2755 2855 2322 2564 2561 2440 2204 2505 2848 2636 2202 2163 2080 2016 1525 2098 3178 2875 3237 3399 3173 3183 3188 3370 3056 2633 2140 1952 2037 1846 1825 1553 1704 1276 1207 927 704 472 419 357 268 394 1263 636 139 272 157 210 198 86 88 84 112 222 220 190 120 92 101 494 741
1490 1674 1791 2101 2070 2709 2692 1992 2229 2606 3271 3324 2759 2672 3030 3526 3485 3032 3081 3029 3285 3314 3142 3160 2984 2601 2568 2924 2576 2602 2514 2501 2952 2820 2436 2226 2013 1868 2267 2386 2632 2787 3260 3215 3115 3826 4192 3024 3006 2648 2427 2166 1975 1655 1232 1222 805 862 738 848 595 729 609 482 439 206 440 333 452 155 212 398 288 32 16 35 98 541 685 699 645 541 0 0 74
863 1542 1847 1630 1616 2970 2512 2638 3290 2945 3082 3192 2908 2508 2607 3000 3290 3227 2963 2941 2922 3062 3049 3304 3198 3122 3214 3019 2808 2787 2491 2174 1994 1989 2394 2507 2836 2653 2536 2248 2483 2714 2884 2915 3328 3198 2905 2666 2594 2632 2466 2145 1577 1314 1297 1338 1311 1108 1139 1590 937 899 790 358 380 188 103 0 16 46 186 232 143 53 24 57 282 557 705 804 841 784 615 0 0
758 1190 1458 1232 1622 2541 2727 2508 2719 2780 2870 3088 3091 3091 2843 2901 2772 2866 3070 3124 2913 3206 2953 2704 2784 2621 2336 2280 2059 2043 2252 2261 2226 2201 2689 3061 2962 2468 2202 2430 2655 2602 2605 2275 2350 2387 2291 2494 2524 2271 1980 1158 1027 1257 1157 921 756 844 1242 1552 1520 1237 1226 834 729 576 243 60 88 191 652 437 718 1268 107 107 334 448 591 728 950 1034 842 276 0
1096 774 894 1288 1353 1937 2777 2266 2254 2594 3022 3026 3318 3222 3046 2881 2734 2833 2586 2790 2991 2570 2983 2956 2744 2725 2653 2084 2376 2320 2200 2059 1909 1772 1781 1476 2121 2158 2467 2326 2185 2021 2308 2166 1835 1668 1634 1634 1407 1158 916 649 692 1057 1157 1074 1032 1042 1107 1003 1602 984 1245 1285 1566 708 406 267 250 211 220 156 90 461 461 432 452 566 752 939 931 1073 1125 852 492
1099 915 546 996 1299 1705 2080 1867 2313 2611 2938 3068 3083 3656 2836 2799 2667 2910 2951 2780 2695 2835 2422 2258 1564 1869 1641 1425 1358 1588 1690 1794 1861 1740 1683 1378 1478 1609 1613 1742 2314 2262 2206 1932 1624 1577 1641 1416 1171 918 1025 1885 1777 1225 816 954 1135 1461 762 564 924 1180 1406 2486 1257 649 1026 397 232 143 69 193 284 722 634 730 1186 1449 1322 1182 1051 939 1032 1087 982
1172 1071 955 978 721 1370 1550 1608 1429 1537 1995 2050 2420 2527 2679 2816 2753 2336 2512 2394 2303 2400 2288 2410 2358 1790 1395 1112 686 748 1066 1789 1592 2573 2982 3089 1889 2102 2080 2124 2194 1927 1880 1825 1992 2149 2154 1920 1818 1763 1309 1318 1532 1546 364 311 674 670 447 196 783 557 551 531 954 590 618 521 388 301 427 880 1132 1025 930 1587 1957 1973 2717 1948 1444 1148 1205 1208 766
1220 1097 1044 1019 790 941 1302 1706 1448 858 1196 1401 1503 1337 1918 2158 1759 1955 1795 1829 2227 2089 2351 1871 2058 1870 1857 1637 1080 1044 2546 2003 2737 3074 2190 1938 1911 1588 1901 1952 2369 2675 2741 2716 2656 2439 2217 1852 1560 1064 688 422 268 358 158 165 227 207 272 534 698 522 980 894 1641 1370 1229 907 1008 1974 1918 1992 1617 1524 1728 1566 904 1850 1111 1832 1989 1960 1427 972 646
1377 1682 1803 1579 1370 1042 583 739 1421 977 496 692 885 989 1322 1575 1975 2030 1826 1663 1737 2027 1678 2256 2233 1933 1553 1327 1484 1320 3581 2979 2820 3687 3484 2617 2814 2430 1803 1837 3008 3364 1955 1664 1916 1844 1774 1522 1240 802 435 486 389 480 425 91 10 79 378 942 1022 1339 1853 1980 1902 2259 1992 1897 2730 2424 2663 2519 2162 1815 1672 1401 1006 967 782 1912 994 982 982 940 942
1726 1094 1066 1051 1512 977 949 1007 1261 986 790 282 545 921 1194 1293 1735 1434 890 1030 1167 1269 1797 1685 1565 1495 1356 1016 896 951 901 1688 2131 3831 3514 3128 2494 2352 2255 2125 2007 1929 2265 3246 2786 2178 1956 1677 1388 1198 1014 916 841 819 495 248 1096 2182 2546 2434 3008 2658 2528 2239 2158 2169 2582 2118 2261 2761 2320 2086 1498 1433 1640 1465 1274 830 456 2542 784 1035 1140 1242 1225
1978 2019 1845 1294 1235 920 685 793 375 293 388 114 358 714 980 1126 1128 1326 513 397 342 428 675 1439 1550 1786 1913 1608 1500 1193 741 709 703 1423 2728 4035 2896 2111 2172 2268 2329 2039 1791 1442 1422 2809 1946 2229 1938 1782 1505 1655 1856 1757 1418 2259 2770 2603 3042 3044 3196 3002 3082 3010 2945 2514 2814 3679 3155 2589 2195 1928 1707 1655 1615 2215 1649 1648 978 648 760 1133 1276 1369 1257
1354 1055 1128 1374 1371 1782 1103 902 1260 434 407 430 516 655 919 801 753 736 961 694 552 389 418 297 469 1301 1981 1947 1862 1714 1501 1525 1598 930 1087 1564 2216 4413 4378 3952 3783 3805 2814 1894 1569 1351 1614 2139 1818 1831 1829 1833 1947 2525 3128 3242 3177 3233 3208 3152 3170 2925 3083 3148 3342 3526 3651 3278 3132 2703 2706 2590 2266 2013 2071 2094 1562 1951 2028 1669 1078 1275 1308 1235 1219
1632 1187 816 1257 994 1488 1355 1032 1061 686 340 940 874 580 850 626 585 454 992 738 612 506 496 692 938 919 1243 1409 1653 1865 2153 2179 2034 2082 1957 1944 2651 3009 3059 2724 2644 3024 3869 3929 3125 2178 2008 1773 1950 2248 2402 2350 2878 3510 3468 3135 2666 3033 2747 3187 3159 2990 2831 2768 2693 2828 2997 3358 3805 3374 2713 2117 1514 1210 1372 1015 1014 1108 1464 1899 1878 1725 1698 1634 1593
1494 1805 1619 1188 836 835 1246 1574 965 999 1062 1018 928 893 811 773 695 845 916 1144 1184 1157 960 673 791 1368 1419 1530 1604 1545 1724 2336 2688 2934 3177 4029 2985 2634 2540 2272 2393 1731 1160 951 1058 1461 2084 1804 2067 1865 1351 1748 1562 1774 1745 1051 1781 2610 2428 2282 2277 2584 2757 2696 2639 2458 2558 1971 1909 2056 1636 1224 1018 689 895 910 1047 1491 1456 1795 1596 1764 1780 1775 1739
1019 1010 1324 1524 953 644 755 764 1418 1410 950 893 786 893 1054 1040 976 1089 1197 1067 1160 1217 1169 1303 1238 1101 1138 1454 1877 1466 2081 3269 2624 2782 2794 2838 3264 2985 3018 2818 2247 1494 668 396 231 491 954 936 790 726 790 806 1049 1417 1613 1620 1672 1650 1824 1981 2136 2210 2454 2504 2409 2267 2300 2010 1434 1292 1568 1521 1279 1092 1063 1052 1869 1921 1804 1588 1768 1605 1822 1723 1610
1013 944 1071 1154 854 716 504 795 697 986 934 1047 1194 915 936 872 915 1305 1741 1708 1514 1278 1070 1208 1152 1293 1415 1486 1999 2508 3269 2384 2723 2415 2370 2270 2822 2800 2648 2656 2615 2271 1733 1052 636 1138 1350 1073 983 1132 1407 1525 1742 1839 1851 1929 2025 1998 1905 2013 2352 2286 2196 2019 1604 1722 1863 1950 2004 1584 2046 1991 1801 1935 1931 1819 1670 1973 1578 1311 1983 1613 2110 1698 1849
1208 1348 1092 954 1203 1142 991 817 978 580 1017 1074 1309 1444 1455 1456 1306 1701 2179 2013 1708 1200 1041 1161 736 1372 1321 2064 2157 2191 2103 2151 1658 1620 1566 1538 1740 1676 1856 2172 2146 1865 1963 2106 2367 2442 2285 2421 2358 2742 4038 3089 3556 3498 3360 2904 2685 2600 2710 2764 2548 2416 2206 2308 2250 2125 1908 1666 1425 2841 2481 2099 1868 1889 1978 1816 1792 1832 1711 1989 1969 2348 2204 1896 2503
Wind_Speed
11 11 10 9 9 10 11 12 13 14 16 17 17 17 17 17 18 18 19 20 19 19 20 18 18 16 14 11 10 10 9 8 8 12 10 9 7 8 9 11 12 14 15 16 17 18 17 17 17 18 18 18 18 18 17 17 18 18 18 19 19 19 19 18 19 19 20 21 22 23 25 25 25 25 24 23 24 24 25 25 25 25 26 26 27
11 10 9 10 10 11 12 13 15 15 16 15 17 19 19 19 20 21 20 21 25 23 25 21 16 15 14 12 10 7 9 9 11 10 10 10 7 7 10 11 13 13 15 16 18 17 17 16 18 18 18 18 18 17 17 18 19 19 20 20 20 20 19 20 20 20 21 21 21 23 24 24 25 24 23 23 23 24 25 26 28 28 27 26 26
8 9 9 10 11 12 12 14 15 17 18 18 19 19 20 21 21 21 20 21 22 21 22 19 16 14 12 10 10 9 10 11 11 11 9 10 9 8 8 11 12 14 15 15 17 17 16 16 17 18 18 18 18 18 18 18 19 20 21 20 21 21 20 21 21 21 20 20 20 21 22 23 22 22 22 22 23 22 23 25 25 24 24 24 24
7 8 9 10 11 13 13 15 15 17 18 18 19 20 20 20 21 22 22 22 20 21 21 17 15 12 12 10 11 10 11 14 9 10 8 8 10 8 7 9 13 14 14 15 15 16 16 17 17 17 17 18 18 18 18 19 20 21 21 21 21 21 21 21 21 20 19 19 19 19 20 21 21 21 21 21 21 20 19 19 19 21 21 20 21
8 8 9 11 12 15 15 15 16 17 17 18 18 19 18 18 19 20 21 19 20 18 20 14 14 14 12 10 8 10 10 9 11 11 7 7 9 10 7 7 9 12 14 14 14 15 15 16 16 16 17 17 18 18 19 19 20 21 21 22 21 21 21 20 19 18 17 17 17 17 18 18 19 19 19 18 16 15 12 10 11 13 14 15 16
8 9 10 12 14 16 15 16 17 17 16 18 18 19 19 18 18 18 19 19 17 17 17 14 11 12 11 9 10 10 13 10 8 8 13 7 8 9 8 7 9 8 9 13 14 14 15 15 15 15 16 16 17 17 17 18 19 20 20 20 20 20 19 18 16 15 14 14 14 15 16 17 17 16 15 13 12 11 10 9 10 11 13 14 14
10 10 10 14 15 15 15 16 16 17 18 20 20 18 17 20 18 17 16 17 16 15 16 12 10 11 12 11 8 11 11 8 12 7 10 9 11 8 9 8 8 8 8 7 10 13 13 14 15 15 15 15 15 16 16 16 18 18 18 18 18 17 16 14 13 11 11 12 13 14 15 15 15 14 14 13 12 12 11 10 10 11 12 12 13
10 12 12 14 14 15 15 15 17 17 17 18 19 16 16 19 15 13 15 15 15 13 12 11 11 8 9 9 9 12 9 8 12 11 5 9 7 6 8 8 9 8 11 7 4 6 11 12 13 14 14 13 13 14 15 15 16 16 16 16 15 14 12 11 10 9 9 12 13 14 14 14 15 15 14 14 13 13 12 10 10 11 11 11 12
12 14 15 13 13 13 13 14 17 16 16 17 19 14 17 17 16 15 11 13 15 11 10 9 10 9 10 8 6 12 6 12 10 7 8 10 7 6 6 6 6 6 8 8 6 3 7 10 11 13 13 12 12 13 14 14 14 14 14 13 12 10 9 8 8 8 9 11 12 12 13 14 14 14 14 14 13 12 11 10 10 11 12 13 14
12 15 15 13 12 11 11 12 14 14 15 15 15 13 16 13 13 11 11 11 11 10 10 11 9 7 9 5 9 10 6 10 9 11 7 10 11 7 7 3 6 7 8 8 6 4 1 6 11 10 11 11 11 12 12 12 12 11 11 9 8 7 7 6 8 8 9 11 12 12 12 13 13 14 14 14 13 12 10 10 11 11 12 13 14
12 14 14 12 11 10 10 12 13 13 15 17 17 10 13 12 11 10 11 11 9 9 10 10 10 9 6 6 7 10 9 7 12 12 11 9 5 8 3 7 4 5 6 6 6 5 3 2 3 5 7 12 11 12 11 11 10 9 7 5 6 6 6 6 7 8 9 10 11 11 11 11 13 13 13 13 12 11 10 10 10 11 12 12 13
12 12 14 11 9 9 8 8 9 8 12 11 17 14 9 10 10 9 9 9 8 9 6 9 6 8 8 5 7 8 9 10 9 8 10 7 8 9 5 3 3 5 2 2 6 1 4 7 6 2 3 8 12 10 11 9 8 7 6 5 5 6 6 7 8 8 10 10 11 11 11 11 12 12 12 11 11 10 10 9 10 10 11 11 12
10 11 10 10 9 7 6 7 5 8 9 13 10 10 10 9 7 9 9 7 7 5 4 9 4 3 7 5 7 10 7 11 13 12 10 9 4 7 6 2 2 3 5 5 6 6 5 4 4 4 1 2 5 10 10 8 7 6 7 6 7 7 8 9 9 10 11 12 12 12 12 12 12 12 12 11 10 10 10 10 10 10 10 10 11
8 9 8 8 7 5 5 6 6 5 8 10 8 9 8 9 7 11 7 6 6 9 5 6 7 3 5 5 6 7 6 10 9 10 9 5 4 6 4 6 1 2 3 2 2 2 4 2 3 5 2 2 2 5 5 7 7 8 8 8 7 8 10 11 10 11 14 14 14 14 14 14 13 13 12 11 11 11 11 11 11 10 10 11 12
6 7 7 7 5 4 4 4 5 4 6 7 7 6 7 6 5 2 9 6 4 4 1 7 6 3 4 5 4 4 7 10 9 5 9 3 6 4 6 2 5 5 1 3 3 2 4 4 2 2 3 2 2 4 2 6 6 9 8 8 9 9 11 12 12 13 15 16 16 15 15 15 15 14 13 13 12 12 11 11 11 11 11 11 12
4 6 5 5 4 3 5 2 4 4 4 7 6 6 4 4 4 5 5 9 2 3 2 5 8 1 4 4 4 4 3 7 6 5 3 5 6 nan 5 3 4 3 1 3 5 4 2 4 5 4 2 4 5 4 3 4 9 9 10 9 10 10 10 12 13 14 15 17 17 17 17 17 16 16 15 15 15 14 13 12 11 11 11 11 12
3 5 4 3 4 5 4 2 2 2 3 4 7 4 2 3 3 3 1 4 5 4 4 3 4 6 5 5 3 5 6 3 2 8 8 nan 5 2 6 2 7 1 4 7 4 5 7 7 4 6 4 4 3 5 4 4 5 1 6 9 10 10 11 12 13 15 16 17 18 18 19 18 18 18 17 16 17 16 14 13 12 12 12 12 12
2 4 2 2 3 4 4 3 2 2 2 6 4 3 3 6 1 6 5 2 3 3 5 4 5 3 2 2 1 6 3 8 9 2 8 3 nan 1 nan 4 6 4 2 6 7 6 6 7 7 7 6 8 5 6 5 5 6 3 2 6 9 9 11 12 14 15 16 16 18 19 20 20 19 19 19 18 18 18 16 14 13 13 13 13 13
3 3 0 1 2 2 3 4 5 1 1 0 2 2 6 5 4 3 3 6 4 3 3 5 5 1 1 1 4 6 3 2 3 1 2 6 8 5 5 1 4 8 8 8 7 6 5 6 5 8 12 8 7 3 3 6 9 9 4 4 7 10 11 12 14 15 15 16 17 19 20 22 22 21 21 21 20 19 18 16 15 15 15 14 14
3 2 2 2 2 2 2 4 4 3 2 4 2 5 3 2 3 5 3 2 4 3 4 6 4 2 7 7 2 5 5 3 4 4 1 2 3 3 2 6 5 4 1 3 5 9 9 5 7 6 10 13 7 7 3 6 9 9 6 12 12 11 11 12 13 14 15 15 17 19 20 21 23 23 23 23 22 21 19 18 16 16 16 15 15
3 4 4 3 2 3 2 3 3 3 2 1 3 2 2 4 3 4 3 3 3 6 4 3 4 5 5 5 7 4 1 2 3 2 4 4 3 1 3 5 2 3 5 3 6 7 10 12 8 3 8 9 10 9 5 4 3 3 8 13 13 13 12 11 11 13 14 15 17 18 20 20 22 23 24 24 24 23 22 21 19 18 18 17 16
3 4 4 4 4 3 4 4 4 4 1 4 1 4 3 4 3 3 6 5 6 3 3 3 3 5 4 5 4 4 5 2 2 1 2 2 4 1 3 2 1 3 3 3 4 8 4 8 9 11 8 6 6 5 2 3 5 4 11 14 13 11 11 10 10 11 11 13 14 16 17 19 20 22 23 24 24 24 24 24 23 21 20 18 18
4 3 4 4 3 3 4 4 4 2 4 3 2 2 1 1 2 5 4 4 4 5 3 3 2 4 2 4 2 2 3 3 3 5 3 0 2 5 4 5 5 6 3 5 2 3 10 9 4 7 9 3 7 5 5 3 7 8 6 11 13 13 12 11 11 10 10 12 13 14 15 16 18 20 22 24 24 25 25 25 24 24 22 20 19
2 4 3 4 3 2 3 2 2 3 2 3 2 1 5 2 3 4 3 3 4 3 5 6 4 4 2 3 3 1 5 1 3 6 4 2 3 1 1 4 1 2 6 6 7 4 4 3 6 5 8 5 2 9 8 7 9 8 7 13 14 12 12 11 10 10 11 12 12 13 13 14 15 18 20 22 23 24 24 24 25 24 23 22 21
2 5 2 2 5 2 2 1 2 0 2 4 4 3 2 7 5 2 4 3 3 3 2 1 2 5 3 2 2 1 2 3 1 1 4 5 2 2 2 3 2 1 1 4 3 3 2 3 2 5 5 5 3 4 3 5 5 7 9 5 7 12 13 12 12 12 12 12 11 11 12 13 15 17 19 20 22 23 23 23 24 24 24 23 22
1 2 3 3 3 4 2 2 2 3 3 1 3 4 3 4 4 1 3 6 5 3 3 2 2 1 0 2 2 1 1 1 2 3 1 2 3 0 6 3 3 2 1 1 2 1 1 4 6 4 8 5 0 1 1 2 3 8 5 3 4 15 14 12 13 11 11 10 10 10 10 11 12 14 16 19 21 22 23 23 23 23 24 24 22
1 1 2 3 1 4 3 1 3 2 3 2 2 3 3 2 1 3 6 3 3 5 5 3 1 2 2 2 3 2 4 5 4 3 4 3 3 4 4 2 2 3 3 1 2 2 2 1 4 5 9 7 5 1 3 3 2 4 4 4 2 14 13 13 11 11 10 8 8 8 9 10 11 13 15 17 19 20 21 22 23 24 23 23 23
1 3 3 2 1 3 2 1 2 3 2 2 1 3 4 2 3 3 2 6 6 4 2 4 3 3 3 4 5 4 4 4 5 6 6 7 9 6 3 3 3 2 3 3 3 3 5 5 6 11 10 7 2 1 3 4 4 5 5 1 1 8 12 11 13 9 9 7 7 7 8 8 11 11 13 15 16 18 20 22 23 23 24 24 24
3 3 4 4 3 3 2 3 3 2 3 3 3 3 5 3 2 2 2 6 5 5 5 5 6 5 4 4 4 4 4 6 4 4 7 6 4 3 3 3 7 4 3 3 3 2 3 5 3 8 9 6 3 5 3 6 4 3 1 2 1 5 11 2 6 11 9 8 8 8 8 9 11 11 12 13 15 18 20 23 23 22 23 25 25
1 8 3 7 5 3 3 3 5 4 3 4 4 5 4 2 4 4 3 7 5 5 3 3 4 5 6 7 7 6 6 5 4 3 5 7 5 3 4 6 7 5 5 4 4 3 3 4 2 4 9 4 1 1 2 3 11 1 3 3 1 3 5 9 12 13 13 11 11 10 9 9 10 12 13 14 17 20 22 24 24 23 23 24 25
4 4 5 7 6 5 4 3 3 4 4 3 5 5 5 3 6 3 4 4 5 5 3 1 2 4 6 6 7 6 7 7 7 5 6 7 6 5 5 6 6 7 6 7 5 6 6 4 5 5 7 6 7 6 5 5 4 4 6 4 5 6 9 13 17 17 16 15 14 14 11 10 10 11 12 15 19 22 24 24 24 23 23 23 25
2 7 5 5 7 7 6 4 5 4 5 4 5 5 3 3 4 3 5 5 3 4 3 2 2 5 5 5 5 5 5 5 5 4 5 5 5 5 5 6 6 5 6 5 7 5 5 5 5 5 12 7 2 7 7 6 4 8 5 3 4 9 13 11 17 22 20 17 17 15 13 12 12 12 13 15 18 21 24 25 26 24 24 23 24
5 7 8 6 6 6 6 6 5 5 3 4 4 5 4 3 2 4 10 5 4 4 4 3 2 3 4 4 3 4 4 3 4 4 3 4 5 4 5 4 3 3 4 7 5 2 4 5 4 5 6 4 4 4 3 3 5 6 5 3 4 7 9 10 9 22 19 18 16 14 13 12 12 13 14 16 18 20 22 23 23 23 23 24 24
14 11 6 8 8 6 6 8 2 5 5 4 4 5 5 4 3 4 8 9 6 4 4 5 5 3 5 5 4 3 4 3 3 3 4 3 5 4 7 10 9 7 8 8 5 0 4 3 3 4 3 4 0 2 2 5 5 5 3 5 6 6 9 9 5 12 20 16 14 14 12 nan 12 14 16 17 19 20 22 23 22 22 22 23 24
14 12 9 6 7 9 5 7 9 5 7 6 3 4 5 5 3 2 4 7 6 5 5 5 4 5 4 5 5 4 5 5 5 4 3 3 3 6 2 7 7 5 8 11 6 1 5 3 2 2 2 2 2 2 3 3 4 3 5 5 7 8 8 7 4 2 20 16 15 12 12 11 12 nan nan nan 18 20 21 22 22 nan 21 21 22
11 15 12 12 7 12 10 8 7 7 8 6 5 3 5 6 5 3 2 4 5 5 4 4 5 5 4 5 4 4 4 4 5 4 4 3 3 3 3 4 3 2 2 2 3 2 2 4 3 2 3 3 2 2 2 4 3 5 6 8 9 9 7 6 4 2 16 18 14 12 11 12 13 nan nan nan nan 19 20 21 21 21 nan nan nan
16 17 14 13 8 12 11 10 11 9 8 8 6 5 5 7 5 5 5 5 5 3 3 3 2 2 3 3 4 4 4 4 4 3 4 3 2 3 3 4 5 4 3 3 2 1 1 3 3 2 2 1 2 2 4 5 6 7 9 10 8 8 9 6 3 2 3 nan nan nan 11 13 15 nan nan nan 18 18 19 19 20 21 21 nan nan
15 17 13 13 14 14 12 12 12 12 11 9 8 7 7 7 7 6 7 6 5 5 5 4 3 3 3 3 2 2 2 3 3 3 2 2 2 2 2 2 3 3 2 3 4 4 2 1 0 1 1 2 4 5 6 7 7 8 9 9 8 9 10 7 4 1 1 nan nan 3 8 12 13 14 14 15 16 17 17 17 18 19 20 21 nan
14 15 20 15 15 14 15 13 14 14 14 13 12 11 8 8 8 8 7 7 7 6 5 5 5 5 3 4 5 3 3 3 2 4 5 5 4 3 3 4 4 4 4 4 4 4 4 4 4 4 4 5 6 6 7 8 8 8 8 8 8 8 8 8 6 3 1 2 3 5 7 7 nan 4 11 14 14 16 16 16 17 18 18 20 21
17 15 17 20 18 16 14 15 15 17 17 16 15 14 12 10 10 11 9 8 7 6 7 6 5 5 5 4 4 5 5 5 5 5 5 4 5 4 4 6 6 6 6 6 6 6 6 6 6 6 7 8 7 7 6 8 8 9 9 8 7 8 9 11 9 4 2 0 2 2 nan 6 6 8 9 9 12 15 17 16 18 17 19 19 20
18 17 17 18 18 19 21 15 17 18 19 17 18 16 16 13 11 10 10 10 9 8 8 8 8 8 6 6 6 4 7 8 9 11 11 13 9 6 7 7 7 7 8 8 8 8 8 8 8 9 8 9 9 8 7 9 9 9 9 7 8 9 9 8 9 8 5 4 4 4 5 4 0 1 4 4 3 10 14 17 13 17 20 20 20
17 19 19 18 20 20 17 21 18 18 19 21 19 23 20 16 13 12 13 11 12 9 10 10 9 9 9 9 9 12 21 19 19 14 11 8 7 6 7 8 8 8 9 9 8 8 9 9 8 9 8 8 7 8 8 7 7 8 9 11 10 8 8 8 11 12 11 7 5 7 8 6 2 2 2 3 3 4 5 8 13 16 19 20 19
19 21 21 20 20 24 21 19 22 18 20 24 29 27 25 21 17 16 15 15 15 11 10 14 12 11 11 10 11 13 20 17 14 14 12 10 9 8 5 5 7 8 8 8 9 9 8 8 8 8 8 8 8 9 8 nan nan nan 11 11 9 9 9 8 8 12 16 13 11 9 11 10 5 5 6 5 5 5 5 13 23 22 23 21 18
22 22 23 23 23 21 22 25 21 19 23 29 32 30 29 25 19 18 16 16 15 14 15 14 13 12 11 11 12 13 13 12 10 13 12 10 9 8 8 7 6 5 7 9 9 9 8 7 8 8 8 9 9 11 10 9 12 11 10 10 10 9 9 9 9 10 15 15 11 10 10 12 10 7 8 9 9 8 8 22 24 24 23 22 20
22 23 22 23 24 22 21 22 22 23 25 36 33 33 32 27 24 20 17 16 17 16 16 16 15 15 15 14 15 15 15 14 13 12 13 11 11 9 9 9 9 8 7 7 8 8 8 8 8 8 10 10 10 11 12 13 13 10 10 10 10 10 9 7 8 8 13 16 12 8 8 11 12 11 10 13 11 10 9 11 18 23 22 22 22
30 28 22 18 21 24 25 24 25 26 31 39 37 36 36 31 28 24 20 18 17 18 17 16 16 16 17 16 16 16 17 17 15 12 12 11 12 14 13 13 12 12 12 11 10 10 9 9 8 10 12 13 12 13 13 14 13 12 11 10 10 9 8 7 7 8 10 13 12 9 8 11 13 11 11 11 12 13 13 17 24 24 23 22 22
23 23 21 18 17 21 25 27 28 29 33 38 36 37 39 37 33 27 23 21 19 19 19 18 17 16 17 18 17 17 19 19 17 16 15 15 14 13 12 11 12 12 14 15 16 16 15 14 12 13 14 14 13 13 16 17 15 15 15 13 12 11 8 7 8 10 10 15 15 14 10 11 14 13 12 12 11 13 13 22 26 26 24 22 22
19 19 23 32 29 23 23 25 29 32 45 44 40 38 40 41 38 31 26 23 21 19 19 19 20 21 20 19 20 19 20 19 23 27 26 22 17 15 13 13 13 12 12 13 14 16 16 16 18 15 15 17 23 20 21 21 21 19 16 14 15 14 11 10 10 12 12 13 15 16 13 10 14 11 11 12 12 12 15 14 18 25 25 24 23
14 15 20 24 27 35 32 28 25 41 47 47 45 43 41 40 36 32 27 23 22 20 18 19 20 21 21 22 22 22 21 31 35 36 34 30 22 19 17 16 15 14 14 15 16 17 15 14 11 11 13 17 16 17 18 19 22 24 20 17 17 17 14 11 11 12 13 15 15 16 13 11 14 15 13 14 13 12 13 14 14 20 25 25 24
13 16 21 23 28 34 35 37 43 41 43 47 49 46 45 41 36 31 28 25 23 22 20 19 20 21 22 19 24 25 32 37 36 37 34 30 25 22 19 18 18 20 20 19 17 23 25 26 24 16 14 17 16 17 19 19 18 25 24 18 17 18 15 14 13 13 13 16 18 20 18 17 17 19 19 17 16 16 17 17 17 19 28 26 27
17 16 17 19 22 29 32 41 45 38 38 47 52 52 47 42 36 33 31 31 32 31 29 26 26 25 27 37 44 42 41 37 36 34 32 28 26 22 21 20 20 20 24 25 24 25 24 23 21 19 19 23 25 25 25 23 24 26 27 22 20 19 18 18 18 16 15 19 24 27 21 20 20 21 21 19 17 17 19 20 20 22 20 17 19
Wind_Direction
89 87 90 92 90 91 91 94 101 106 100 99 105 107 108 114 120 120 125 126 126 127 123 127 124 132 126 112 115 109 117 116 104 106 115 98 89 83 66 78 94 105 112 115 116 111 109 104 103 100 105 102 106 104 103 102 98 98 96 93 88 85 82 80 79 75 72 71 67 63 60 59 59 58 58 57 55 54 52 52 51 51 50 45 40
96 98 90 88 83 81 86 89 94 103 105 112 114 115 119 123 126 124 128 132 135 138 127 125 126 126 123 116 103 104 91 90 92 93 99 113 109 93 59 73 89 100 106 110 111 111 107 107 101 102 103 106 104 105 102 101 99 96 94 90 87 84 82 79 77 75 73 70 65 61 58 56 56 56 56 54 52 49 47 46 46 46 47 47 44
96 92 94 94 94 89 90 96 104 112 118 113 117 121 124 125 128 129 129 133 128 125 122 119 122 109 105 104 99 102 100 84 73 76 94 109 108 91 76 61 83 92 100 104 105 102 101 99 99 98 100 101 103 100 100 99 98 96 93 90 87 84 81 78 76 74 72 69 64 59 57 56 56 54 52 51 50 49 46 46 46 47 46 46 45
91 91 93 91 92 94 96 100 110 111 114 121 120 124 126 130 130 130 132 127 125 119 118 120 114 116 107 120 104 81 83 87 94 127 123 111 108 100 86 83 73 87 96 100 99 99 95 91 95 98 97 99 99 98 97 98 96 94 91 89 86 84 82 79 75 74 73 67 63 59 54 53 51 49 47 47 47 47 48 49 46 43 40 37 36
95 90 84 92 94 94 101 108 107 110 115 123 126 121 122 120 121 119 124 122 120 122 113 116 122 119 105 88 97 107 87 97 91 80 95 92 95 98 95 86 94 80 87 94 97 96 90 89 90 92 95 95 95 96 96 97 95 93 92 90 89 87 86 83 82 79 74 67 59 52 46 43 42 42 42 43 42 38 33 31 32 32 27 23 22
90 84 91 93 92 95 99 104 108 113 113 108 112 116 122 120 119 124 121 118 121 118 116 116 112 97 99 98 101 99 86 89 102 113 102 120 129 115 105 109 101 105 105 81 86 86 88 87 86 87 91 91 94 95 97 96 95 94 94 93 93 92 91 91 89 81 73 62 49 39 32 30 31 31 28 24 20 13 11 13 19 26 26 23 18
95 93 95 98 97 100 101 102 106 104 108 118 116 118 123 120 122 124 124 123 125 125 119 118 117 122 117 107 89 89 99 112 120 110 120 123 105 130 130 115 128 119 109 111 83 81 82 82 81 85 85 91 93 96 97 95 95 96 96 97 97 96 96 94 87 77 62 47 35 26 21 18 16 12 9 10 4 358 1 5 12 21 22 19 16
97 99 96 101 104 105 109 113 106 108 112 111 122 113 109 110 122 116 123 128 124 114 111 110 104 99 88 86 86 77 95 99 89 93 112 99 111 105 110 132 121 140 139 124 112 86 67 74 79 77 82 86 90 92 93 92 93 93 94 96 98 100 98 92 80 62 45 34 27 19 14 8 4 5 4 359 355 351 351 356 5 12 17 12 10
97 100 104 102 104 106 109 105 108 116 122 115 106 113 118 119 122 130 134 121 115 113 112 107 93 71 78 75 93 109 85 93 106 111 126 127 111 81 107 115 134 131 116 137 139 121 56 59 64 70 69 72 75 80 80 85 87 89 91 93 96 96 96 90 74 54 37 26 24 19 12 8 5 2 358 356 352 346 346 354 0 6 9 6 8
98 103 109 106 104 108 113 117 113 115 112 107 109 129 123 106 104 118 121 122 123 126 112 103 89 96 96 74 77 72 83 97 116 111 92 104 118 138 105 92 81 92 121 142 158 152 91 54 53 59 60 58 60 63 69 74 78 83 87 90 88 86 84 75 62 47 34 28 24 20 14 8 3 358 355 354 351 348 350 355 1 6 9 8 9
97 104 105 108 113 116 113 118 127 117 131 141 124 106 106 121 137 124 124 123 128 126 135 115 115 102 67 69 77 110 114 113 89 101 100 90 114 96 104 104 129 155 152 144 138 159 157 66 65 69 51 44 50 53 59 60 66 72 78 79 78 72 64 60 51 37 32 23 19 15 13 7 2 359 356 355 353 354 354 357 2 7 11 8 10
96 99 105 107 109 111 115 106 107 141 124 119 122 121 113 121 123 136 128 119 107 109 94 106 119 133 146 109 85 81 101 100 101 87 99 87 72 99 79 85 88 88 47 87 124 287 199 181 139 86 343 23 37 43 49 51 57 64 62 54 47 45 44 36 31 20 21 15 10 11 12 11 7 4 0 1 1 1 1 3 7 13 12 11 13
97 100 106 114 117 123 118 117 120 118 123 103 80 113 139 135 136 136 131 125 112 95 125 126 146 108 95 98 92 77 70 86 87 77 76 78 101 100 140 123 172 141 150 197 148 206 213 172 147 142 220 345 20 34 36 28 30 33 37 38 30 27 25 21 17 8 9 9 8 11 13 16 14 11 10 9 13 12 10 12 18 19 20 17 15
96 98 99 102 106 110 117 124 119 108 111 122 133 122 133 143 157 150 132 139 142 146 171 136 80 60 61 71 82 89 103 81 70 71 73 84 73 110 112 101 334 327 273 201 129 213 252 265 165 182 171 168 312 343 8 358 1 16 23 30 24 18 16 13 9 8 4 4 10 13 15 17 17 17 18 20 23 21 19 21 24 28 26 22 15
100 97 98 92 97 93 98 100 106 119 112 110 119 130 129 146 176 99 149 142 168 166 152 128 109 134 154 95 80 66 91 91 93 107 82 43 64 27 64 346 217 218 269 20 38 353 294 283 296 256 201 173 225 243 281 294 307 348 13 17 19 18 14 10 8 6 6 3 8 14 14 16 17 20 24 29 28 28 27 25 27 31 29 21 15
89 92 101 110 105 91 79 88 113 123 128 118 124 126 146 146 198 147 212 145 179 248 171 177 164 236 65 109 88 128 84 92 75 56 87 102 68 nan 80 248 263 256 54 31 275 280 342 288 279 290 282 223 217 223 235 261 314 352 359 2 11 12 17 11 9 7 8 9 8 10 13 13 16 20 28 32 32 30 32 27 26 29 28 20 16
86 98 111 133 120 113 126 105 102 90 98 125 107 105 139 107 203 145 69 147 176 248 211 237 214 163 164 128 172 109 162 102 152 156 106 nan 63 270 170 85 294 300 121 239 294 9 330 308 310 301 288 306 287 257 227 246 298 287 345 356 1 9 12 13 11 10 11 14 12 8 9 12 14 19 28 33 33 33 32 30 25 27 24 20 17
70 91 115 109 118 124 132 126 70 100 187 135 110 171 155 129 358 165 188 213 169 165 279 205 247 191 253 208 224 139 135 165 141 134 121 164 nan 188 nan 79 283 327 41 339 350 341 307 325 328 325 312 297 271 295 319 321 289 246 258 339 8 11 13 11 15 16 17 15 12 9 8 9 13 18 25 33 34 32 33 31 26 24 24 22 19
11 51 61 77 86 120 113 126 111 292 187 15 93 166 170 130 205 239 180 192 156 192 195 276 218 102 240 204 193 142 147 177 135 91 122 153 130 18 11 48 20 354 4 356 328 326 295 273 329 302 306 281 284 329 309 281 265 290 350 11 25 19 21 18 17 20 23 18 13 10 8 6 10 17 23 31 36 34 33 31 27 24 25 23 21
358 8 23 12 59 70 110 113 134 162 247 186 170 275 49 186 244 224 224 203 208 201 216 177 299 224 210 170 238 203 160 168 153 188 179 111 86 100 352 18 38 264 6 282 284 281 291 334 295 333 316 311 326 307 349 309 317 332 12 18 27 30 24 25 24 23 24 19 15 12 9 6 8 16 23 30 37 38 36 33 27 27 26 25 23
360 4 24 16 47 65 73 103 110 129 233 18 106 293 254 248 247 249 264 256 215 235 217 227 195 242 266 193 189 172 142 260 312 114 148 195 109 166 179 197 179 287 220 187 290 311 324 314 304 288 318 316 332 329 339 307 291 27 342 5 27 26 29 29 28 26 22 18 15 13 11 9 10 18 26 33 39 41 40 36 32 30 30 26 22
343 12 6 21 37 58 63 66 79 87 3 88 252 227 236 242 233 225 236 231 230 234 256 258 195 214 235 246 215 194 200 205 223 280 287 312 111 17 1 328 320 244 302 334 288 309 318 299 335 349 298 326 315 285 264 346 350 35 344 13 23 29 31 29 31 27 19 12 11 12 15 16 16 24 32 37 41 42 41 38 36 31 30 28 22
330 331 358 22 17 41 59 51 100 67 102 111 82 123 310 269 264 239 227 228 239 232 234 246 245 239 199 243 233 292 295 248 247 216 228 315 167 173 152 266 183 282 322 235 300 345 333 349 331 283 289 302 287 311 349 7 69 19 354 47 35 32 23 26 24 17 11 9 8 13 19 24 28 33 39 40 39 39 39 38 36 31 28 28 23
287 301 338 8 339 11 64 48 27 88 36 92 100 144 146 289 240 231 239 237 220 216 198 207 198 267 185 263 290 178 255 320 306 314 322 223 215 230 147 231 34 106 286 333 347 8 329 15 316 297 302 279 342 334 4 26 341 316 61 20 34 21 15 16 12 359 0 5 10 18 26 31 37 42 43 41 39 37 36 35 33 30 26 26 26
252 262 284 37 299 314 333 319 305 331 188 187 190 231 149 163 235 175 245 224 207 199 231 244 243 200 209 221 241 192 250 253 199 275 271 274 311 327 40 205 219 100 198 234 193 198 200 276 242 296 273 317 24 306 10 51 329 336 25 71 23 5 5 7 358 351 354 3 15 28 35 35 39 42 38 36 35 35 35 33 30 27 25 23 26
229 234 249 304 289 298 286 295 279 282 275 272 214 218 201 213 176 194 221 219 230 149 176 177 213 248 332 190 184 196 190 243 244 246 51 327 333 357 242 195 145 124 36 294 307 326 35 329 303 292 275 259 99 67 21 80 80 352 39 86 67 353 355 355 348 345 352 1 22 40 46 45 46 42 38 35 33 33 32 29 27 25 24 22 19
250 238 231 242 271 271 292 299 292 288 289 285 300 259 225 281 249 221 231 226 167 187 167 153 205 271 233 206 184 177 199 193 196 178 204 184 184 234 231 204 171 170 149 201 273 343 305 273 227 220 295 321 292 109 76 66 56 309 96 72 87 335 337 351 342 350 350 2 32 50 53 47 40 37 34 34 35 34 31 29 25 22 21 20 15
156 307 289 282 290 293 308 347 308 310 302 292 294 285 291 259 239 229 262 257 205 205 174 161 194 209 205 211 214 185 204 201 182 194 200 205 222 174 198 187 206 191 193 171 191 204 203 218 243 261 257 272 279 127 95 99 66 308 53 140 93 339 331 350 354 345 356 15 34 48 50 43 36 37 34 31 32 30 30 29 27 22 18 16 14
304 301 324 315 313 332 350 344 326 329 309 315 317 289 288 284 281 270 225 244 260 235 183 179 201 196 237 276 256 233 223 230 216 204 233 232 211 193 209 210 235 229 226 219 229 204 206 214 231 289 283 258 350 353 91 75 255 246 186 256 333 21 324 306 358 359 11 21 39 40 36 30 30 30 27 27 24 24 26 26 26 24 17 13 13
160 287 359 313 315 338 340 2 342 344 334 339 329 315 316 303 285 276 279 268 249 241 194 172 204 224 213 227 242 246 248 258 267 272 274 262 241 233 228 239 253 236 236 225 225 230 214 230 248 238 285 293 22 79 330 126 307 269 235 263 352 358 300 40 29 9 12 22 31 34 26 25 25 20 21 20 18 19 20 22 24 24 22 16 11
312 245 288 308 314 322 337 349 337 336 331 328 313 307 312 321 290 312 308 317 298 297 331 289 238 232 233 232 237 239 234 229 230 227 234 254 259 247 240 236 226 230 229 234 211 233 211 220 213 208 243 230 200 200 166 179 271 262 229 293 356 327 19 30 36 8 6 18 25 19 19 22 22 22 22 16 15 16 17 19 20 22 23 21 14
277 297 292 301 310 324 330 350 347 344 329 332 318 311 315 331 320 326 314 334 326 316 316 313 290 282 273 267 257 248 241 241 248 249 260 267 249 234 236 228 239 235 230 232 230 192 197 214 206 198 244 239 234 216 195 169 216 321 268 293 349 348 5 1 359 2 358 18 20 10 14 17 19 26 20 17 16 16 17 18 19 20 22 23 20
286 294 303 297 305 316 331 324 346 305 321 312 306 302 307 325 352 308 286 321 325 331 316 309 296 292 289 278 271 270 261 252 258 262 276 284 287 282 257 287 282 253 251 255 261 202 157 204 190 209 236 254 225 228 180 164 176 216 227 293 309 347 343 340 345 345 357 11 18 13 10 10 18 21 19 18 20 20 17 18 20 21 22 23 22
260 235 248 297 297 306 317 311 278 316 300 298 304 301 309 323 343 347 317 316 331 339 313 319 319 304 306 308 304 310 309 304 270 285 296 304 322 316 309 278 241 244 264 280 289 209 138 163 205 198 211 256 243 270 175 176 189 222 227 277 318 323 325 315 353 344 359 7 20 19 8 nan 12 19 20 20 22 20 15 16 20 21 23 24 23
276 277 261 262 285 289 294 281 309 300 293 301 296 295 302 315 333 319 316 323 325 330 333 338 335 326 325 314 316 311 302 306 306 300 297 286 266 262 263 276 307 306 307 302 307 53 104 130 172 163 200 209 180 180 165 198 231 243 267 292 296 310 312 327 337 36 349 9 23 22 8 5 19 nan nan nan 21 19 17 15 17 nan 20 23 25
273 275 273 254 259 279 275 255 276 289 292 292 291 298 292 297 301 293 239 271 301 319 335 345 337 334 329 323 328 321 304 291 279 249 241 255 279 275 273 294 289 291 266 327 1 46 113 138 159 156 191 190 174 183 212 251 246 265 295 304 322 318 311 322 335 76 339 11 29 25 6 17 26 nan nan nan nan 18 19 16 13 13 nan nan nan
269 268 268 276 258 270 276 282 279 282 283 283 287 283 280 281 283 283 287 290 296 303 317 317 317 306 313 328 343 337 331 325 318 326 316 318 316 272 283 296 301 308 310 305 323 6 116 128 149 178 195 255 279 285 281 276 284 305 305 305 310 321 320 326 356 16 142 nan nan nan 15 21 25 nan nan nan 21 19 20 19 12 9 8 nan nan
266 280 285 278 280 277 270 268 278 278 275 277 275 262 267 272 273 273 277 284 296 294 299 306 312 309 308 325 330 355 342 336 337 322 304 271 266 334 341 291 277 276 299 331 342 345 359 18 42 170 274 247 267 291 298 305 304 296 301 309 317 320 320 325 325 6 56 nan nan 286 3 22 22 21 28 28 23 21 23 22 17 9 5 360 nan
270 270 270 263 269 273 275 279 278 278 279 276 272 273 264 259 264 267 266 268 270 276 283 287 294 301 303 299 306 320 329 307 308 316 324 338 335 343 329 323 330 331 329 326 315 329 337 337 325 320 301 288 273 270 278 283 300 314 310 311 317 310 308 303 317 354 45 186 191 44 50 88 nan 345 13 23 22 21 23 23 22 15 359 356 357
270 270 274 280 272 273 280 275 272 275 278 277 277 275 269 266 269 269 264 258 261 260 267 276 276 274 277 280 288 299 298 302 300 290 290 297 309 317 310 305 302 304 308 306 304 300 307 306 302 290 279 280 295 293 287 299 301 303 298 286 295 305 313 319 322 339 328 350 9 298 nan 327 358 12 31 33 22 20 20 23 25 14 348 353 354
264 266 265 267 276 276 272 278 279 277 275 275 275 275 272 271 264 273 268 272 271 262 258 254 258 257 256 254 264 278 281 311 300 265 246 245 252 274 285 286 292 294 297 294 294 294 292 297 295 292 298 301 301 305 295 282 272 260 275 291 292 289 290 294 305 315 325 332 329 317 300 271 227 225 228 230 313 355 4 13 10 355 342 348 352
262 263 264 265 267 269 275 269 271 274 273 269 265 271 274 266 270 260 270 268 262 259 262 260 255 256 256 247 242 244 263 270 270 279 285 287 280 269 264 271 278 279 279 281 283 286 286 288 293 292 291 289 287 284 274 275 282 289 283 274 273 278 290 298 306 314 312 316 319 309 308 316 316 289 301 293 285 325 281 309 297 306 329 339 342
268 262 260 266 264 253 254 268 270 263 269 265 274 278 284 265 256 266 259 260 256 245 261 261 250 248 247 250 252 266 277 280 284 295 301 302 309 308 303 286 269 268 270 274 279 279 282 284 288 295 296 289 288 281 280 nan nan nan 271 278 280 283 289 293 298 301 311 309 309 312 315 313 320 345 325 316 319 308 306 297 305 317 328 334 338
266 266 263 258 256 264 259 253 262 267 264 268 280 283 282 279 269 258 256 259 265 267 265 266 268 266 262 260 266 263 265 271 267 286 292 304 308 307 301 292 288 289 283 276 275 281 286 284 281 283 279 278 273 279 283 277 268 264 269 277 288 290 293 298 299 299 292 299 307 303 306 308 318 328 323 325 320 301 288 307 327 324 327 328 332
266 271 268 262 262 261 259 259 257 257 257 274 283 283 281 280 275 265 259 256 256 260 260 264 264 261 262 264 259 260 258 254 262 266 275 288 305 313 305 298 294 297 302 314 309 294 281 283 286 279 280 275 274 272 269 269 275 281 282 288 287 287 290 295 300 289 287 286 293 305 304 299 302 315 320 309 304 302 300 321 334 327 325 327 328
249 241 230 248 263 264 263 259 256 254 249 270 278 280 278 276 273 266 262 256 257 259 259 259 263 268 270 266 263 267 272 270 269 270 268 263 267 280 282 281 281 295 311 321 323 329 317 290 283 279 278 281 283 283 280 277 276 280 281 284 280 281 287 298 289 290 295 299 309 304 308 304 302 309 313 306 307 308 308 302 317 326 332 331 329
256 259 258 238 247 271 272 265 261 259 255 269 273 275 274 273 267 260 257 255 255 258 264 267 264 260 261 264 267 266 268 269 272 269 271 272 270 268 269 272 274 278 287 297 300 297 296 300 299 298 289 290 295 295 293 289 286 282 277 271 272 278 285 293 300 304 307 310 317 314 325 312 309 316 315 308 303 302 302 309 326 331 332 332 330
259 254 245 247 239 235 254 264 262 262 250 242 245 255 265 269 267 261 259 257 255 254 256 264 268 269 270 268 265 265 262 263 257 260 259 259 261 258 259 261 263 264 267 273 287 295 298 295 298 296 292 279 270 273 273 275 275 278 280 284 283 287 293 296 297 294 301 299 306 313 313 306 300 309 303 298 299 303 296 294 315 330 332 333 331
272 256 245 251 254 249 232 225 244 256 252 247 244 244 249 259 262 261 260 259 259 261 263 264 270 273 274 273 270 267 267 261 255 253 249 256 262 257 253 250 253 254 254 257 283 308 313 315 315 301 279 263 260 258 260 267 280 281 283 287 291 292 299 297 294 294 295 291 288 287 293 303 296 295 294 290 292 294 293 297 298 321 330 327 328
270 260 258 253 256 255 248 236 233 242 248 245 242 242 242 240 238 248 253 257 255 251 251 254 261 266 269 275 266 263 262 263 257 258 253 259 264 263 259 255 252 254 254 256 256 256 256 250 240 231 258 271 275 281 283 288 293 294 296 297 294 292 297 296 290 287 283 282 284 282 287 291 285 285 282 286 290 296 296 293 295 292 312 324 332
264 268 265 256 257 260 254 253 254 242 240 243 240 237 234 234 236 242 243 245 245 247 248 245 241 240 242 244 249 259 266 271 271 269 269 267 267 267 265 262 260 260 261 255 256 258 262 265 274 280 282 287 289 290 294 303 309 305 304 306 299 295 292 288 287 281 276 277 274 270 276 277 280 284 284 280 286 290 293 293 290 288 282 283 308